{"data":{"norad_id":66667,"intl_designator":"2025-276B","name":"PELICAN-5","alt_names":[],"object_type":"PAYLOAD","status":"ACTIVE","operator":null,"country":"US","launch_date":"2025-11-28","launch_site_code":"AFWTR","launch_vehicle":null,"mission":null,"orbit_class":"UNKNOWN","rcs_meters":null,"size_class":null,"mass_kg":null,"dimensions":null,"purposes":["earth_obs"],"wikipedia_slug":null,"has_3d_model":false,"image_url":null,"decayed_at":null,"tle_current":{"epoch":"2026-05-25T04:13:54.078240Z","epoch_age_seconds":50047,"freshness":"FRESH","line1":"1 66667U 25276B   26145.17632035  .00004436  00000+0  16090-3 0  9993","line2":"2 66667  97.4124 220.2285 0004603  70.8355 289.3382 15.28858512 27001","mean_motion":15.28858512,"eccentricity":0.0004603,"inclination_deg":97.4124,"raan_deg":220.2285,"arg_perigee_deg":70.8355,"mean_anomaly_deg":289.3382,"bstar":0.0001609,"rev_number":2700,"period_min":94.187917894131,"perigee_km":476.06699627951,"apogee_km":482.37988229992,"semimajor_km":6857.3604392897,"source":"CELESTRAK","updated_at":"2026-05-25T13:38:13.344568Z"}}}